CW2433 Weather Reports


Display with metric or nautical units.
time (UTC)temp
F
wind
direction
speed
MPH
gust
MPH
rain 1hr
in
rain 24hr
in
rain mn
in
humidity
%
barometer
mb
20260902222509 96 207 4.0 10.0 0.00 0.00 0.00 47 1008.7
20260902222009 96 194 4.0 10.0 0.00 0.00 0.00 47 1008.7
20260902221009 96 148 4.0 10.0 0.00 0.00 0.00 47 1008.7
20260902220511 96 169 2.0 10.0 0.00 0.00 0.00 48 1008.7
20260902220010 97 201 5.0 10.0 0.00 0.00 0.00 47 1008.6
20260902215509 97 183 5.0 7.0 0.00 0.00 0.00 48 1008.6
20260902215009 97 220 2.0 7.0 0.00 0.00 0.00 48 1008.6
20260902214009 97 196 2.0 10.0 0.00 0.00 0.00 48 1008.6
20260902213509 97 213 3.0 9.0 0.00 0.00 0.00 47 1008.6
20260902213010 97 184 3.0 7.0 0.00 0.00 0.00 48 1008.7
20260902212510 97 219 3.0 9.0 0.00 0.00 0.00 47 1008.7
20260902212010 97 218 4.0 9.0 0.00 0.00 0.00 47 1008.7
20260902211010 97 223 3.0 6.0 0.00 0.00 0.00 47 1008.7
20260902210010 97 168 2.0 10.0 0.00 0.00 0.00 48 1008.8
20260902205010 96 218 3.0 6.0 0.00 0.00 0.00 48 1009.0
20260902204510 96 210 1.0 7.0 0.00 0.00 0.00 48 1009.1
20260902203510 96 194 5.0 9.0 0.00 0.00 0.00 46 1009.1
20260902202510 97 207 6.0 10.0 0.00 0.00 0.00 46 1009.1
20260902202010 96 219 5.0 9.0 0.00 0.00 0.00 47 1009.2
20260902201510 96 226 5.0 12.0 0.00 0.00 0.00 47 1009.2
20260902200010 96 201 4.0 9.0 0.00 0.00 0.00 48 1009.2
20260902195510 96 193 5.0 9.0 0.00 0.00 0.00 48 1009.2
20260902194509 95 194 3.0 7.0 0.00 0.00 0.00 48 1009.3
20260902194009 95 221 5.0 12.0 0.00 0.00 0.00 48 1009.5
20260902193509 95 183 3.0 12.0 0.00 0.00 0.00 48 1009.5
20260902193009 95 161 6.0 12.0 0.00 0.00 0.00 48 1009.5
20260902192009 95 157 3.0 10.0 0.00 0.00 0.00 50 1009.5
20260902191509 95 221 4.0 10.0 0.00 0.00 0.00 49 1009.6
20260902191009 95 179 3.0 10.0 0.00 0.00 0.00 49 1009.7
20260902190509 95 217 2.0 7.0 0.00 0.00 0.00 48 1009.8
20260902190009 95 209 2.0 7.0 0.00 0.00 0.00 49 1009.7
20260902185509 95 228 3.0 7.0 0.00 0.00 0.00 47 1009.8
20260902185009 95 204 3.0 7.0 0.00 0.00 0.00 48 1009.8
20260902184509 95 213 2.0 7.0 0.00 0.00 0.00 50 1009.9
20260902184009 95 194 2.0 7.0 0.00 0.00 0.00 49 1010.0
20260902183509 95 214 2.0 7.0 0.00 0.00 0.00 48 1010.1
20260902183009 94 180 3.0 7.0 0.00 0.00 0.00 48 1010.2
20260902182509 95 207 3.0 7.0 0.00 0.00 0.00 47 1010.3
20260902182009 95 186 3.0 7.0 0.00 0.00 0.00 48 1010.2
20260902181510 95 203 2.0 6.0 0.00 0.00 0.00 49 1010.3
20260902181009 95 219 3.0 6.0 0.00 0.00 0.00 49 1010.3
20260902180509 94 215 3.0 7.0 0.00 0.00 0.00 48 1010.5
20260902180009 94 218 3.0 9.0 0.00 0.00 0.00 49 1010.5
20260902175509 94 237 4.0 9.0 0.00 0.00 0.00 47 1010.5
20260902175010 94 211 4.0 6.0 0.00 0.00 0.00 49 1010.7
20260902174510 93 217 2.0 10.0 0.00 0.00 0.00 49 1010.6
20260902174010 93 194 3.0 10.0 0.00 0.00 0.00 50 1010.7
20260902173509 92 134 3.0 9.0 0.00 0.00 0.00 53 1010.8
20260902173010 91 148 3.0 9.0 0.00 0.00 0.00 52 1010.8
20260902172510 91 130 2.0 5.0 0.00 0.00 0.00 55 1010.8
20260902172010 90 207 2.0 6.0 0.00 0.00 0.00 55 1011.0
20260902171510 90 214 3.0 7.0 0.00 0.00 0.00 53 1011.0
20260902171009 89 205 3.0 7.0 0.00 0.00 0.00 53 1011.0
20260902164511 89 214 1.0 3.0 0.00 0.00 0.00 55 1011.0
20260902164010 88 214 1.0 6.0 0.00 0.00 0.00 54 1011.0
20260902163510 88 175 2.0 6.0 0.00 0.00 0.00 57 1011.0
20260902163010 88 185 2.0 6.0 0.00 0.00 0.00 59 1011.0
20260902162510 88 186 1.0 8.0 0.00 0.00 0.00 60 1011.1
20260902161510 85 159 2.0 6.0 0.00 0.00 0.00 65 1011.1
20260902161010 84 115 3.0 6.0 0.00 0.00 0.00 66 1011.2
20260902160509 84 144 2.0 5.0 0.00 0.00 0.00 69 1011.3
20260902160010 83 138 2.0 6.0 0.00 0.00 0.00 67 1011.4
20260902155510 83 141 2.0 6.0 0.00 0.00 0.00 67 1011.3
20260902155010 83 134 2.0 6.0 0.00 0.00 0.00 68 1011.3
20260902154510 82 136 2.0 5.0 0.00 0.00 0.00 68 1011.4
20260902154010 82 146 1.0 5.0 0.00 0.00 0.00 69 1011.6
20260902153010 81 154 1.0 3.0 0.00 0.00 0.00 70 1011.5
20260902152510 81 132 1.0 3.0 0.00 0.00 0.00 70 1011.6
20260902152010 81 150 1.0 3.0 0.00 0.00 0.00 70 1011.6
20260902151010 80 143 1.0 6.0 0.00 0.00 0.00 71 1011.6
20260902150009 80 165 2.0 6.0 0.00 0.00 0.00 70 1011.4
20260902145509 80 119 2.0 6.0 0.00 0.00 0.00 70 1011.4
20260902145010 80 141 2.0 6.0 0.00 0.00 0.00 69 1011.4
20260902144509 80 175 1.0 3.0 0.00 0.00 0.00 69 1011.4
20260902144009 80 150 1.0 5.0 0.00 0.00 0.00 68 1011.4
20260902142509 79 148 2.0 6.0 0.00 0.00 0.00 70 1011.2
20260902141509 79 128 2.0 6.0 0.00 0.00 0.00 70 1011.4
20260902141009 78 186 2.0 8.0 0.00 0.00 0.00 71 1011.6
20260902140509 78 187 3.0 8.0 0.00 0.00 0.00 72 1011.7
20260902140009 77 138 1.0 5.0 0.00 0.00 0.00 73 1011.6
20260902135509 76 149 1.0 7.0 0.00 0.00 0.00 75 1011.6
20260902135009 76 142 2.0 7.0 0.00 0.00 0.00 75 1011.8
20260902134509 75 153 2.0 7.0 0.00 0.00 0.00 77 1011.8
20260902134009 75 150 1.0 7.0 0.00 0.00 0.00 79 1011.8
20260902133509 74 142 3.0 7.0 0.00 0.00 0.00 81 1011.8
20260902133009 74 131 1.0 2.0 0.00 0.00 0.00 83 1011.9
20260902132509 74 130 1.0 2.0 0.00 0.00 0.00 84 1011.9
20260902131509 73 142 1.0 2.0 0.00 0.00 0.00 85 1012.0
20260902131009 73 170 1.0 2.0 0.00 0.00 0.00 86 1012.0
20260902130509 73 251 0.0 0.0 0.00 0.00 0.00 86 1012.1
20260902125509 72 244 0.0 0.0 0.00 0.00 0.00 85 1012.1
20260902125010 72 235 0.0 1.0 0.00 0.00 0.00 85 1012.1
20260902124510 72 252 0.0 2.0 0.00 0.00 0.00 85 1012.1
20260902124009 72 252 0.0 2.0 0.00 0.00 0.00 85 1012.2
20260902123509 72 284 0.0 2.0 0.00 0.00 0.00 85 1012.1
20260902123010 72 261 0.0 3.0 0.00 0.00 0.00 85 1012.0
20260902122509 72 261 1.0 3.0 0.00 0.00 0.00 85 1012.2
20260902122010 72 261 0.0 2.0 0.00 0.00 0.00 84 1011.9
20260902121510 72 261 0.0 1.0 0.00 0.00 0.00 84 1011.8
20260902120010 72 25 0.0 2.0 0.00 0.00 0.00 83 1011.7
20260902115509 72 25 0.0 2.0 0.00 0.00 0.00 82 1011.7
20260902115010 72 245 1.0 3.0 0.00 0.00 0.00 82 1011.7
20260902114010 73 355 0.0 2.0 0.00 0.00 0.00 82 1011.8
20260902113510 73 355 0.0 2.0 0.00 0.00 0.00 81 1011.7
20260902113010 73 355 1.0 2.0 0.00 0.00 0.00 81 1011.7
20260902112510 73 355 0.0 0.0 0.00 0.00 0.00 81 1011.7
20260902112010 73 355 0.0 2.0 0.00 0.00 0.00 81 1011.7
20260902111510 73 355 0.0 3.0 0.00 0.00 0.00 81 1011.7
20260902111010 73 355 1.0 3.0 0.00 0.00 0.00 81 1011.7
20260902110510 73 347 0.0 6.0 0.00 0.00 0.00 81 1011.8
20260902110010 74 337 2.0 7.0 0.00 0.00 0.00 81 1011.8
20260902105510 74 342 3.0 7.0 0.00 0.00 0.00 81 1011.7
20260902105010 74 333 0.0 3.0 0.00 0.00 0.00 81 1011.7
20260902104510 74 349 2.0 3.0 0.00 0.00 0.00 81 1011.6
20260902104010 74 66 1.0 2.0 0.00 0.00 0.00 80 1011.7
20260902103010 74 65 0.0 0.0 0.00 0.00 0.00 79 1011.7
20260902102510 74 66 0.0 0.0 0.00 0.00 0.00 78 1011.7
20260902102010 74 66 0.0 1.0 0.00 0.00 0.00 78 1011.6
20260902101510 75 66 0.0 1.0 0.00 0.00 0.00 78 1011.7
20260902101010 75 65 0.0 1.0 0.00 0.00 0.00 77 1011.7
20260902100509 75 66 0.0 0.0 0.00 0.00 0.00 77 1011.8
20260902095509 75 66 0.0 0.0 0.00 0.00 0.00 76 1011.8
20260902095009 75 66 0.0 0.0 0.00 0.00 0.00 76 1011.7
20260902094509 76 66 0.0 0.0 0.00 0.00 0.00 76 1011.7
20260902094009 76 66 0.0 0.0 0.00 0.00 0.00 75 1011.8
20260902093509 76 66 0.0 1.0 0.00 0.00 0.00 74 1011.9
20260902093009 76 66 0.0 1.0 0.00 0.00 0.00 74 1012.0
20260902092509 76 66 0.0 0.0 0.00 0.00 0.00 74 1012.0
20260902092009 77 66 0.0 2.0 0.00 0.00 0.00 73 1011.9
20260902091009 77 66 1.0 2.0 0.00 0.00 0.00 73 1011.7
20260902090509 77 65 0.0 2.0 0.00 0.00 0.00 73 1011.6
20260902090010 77 66 0.0 2.0 0.00 0.00 0.00 73 1011.6
20260902085509 77 66 0.0 2.0 0.00 0.00 0.00 72 1011.6
20260902085009 77 66 0.0 2.0 0.00 0.00 0.00 72 1011.7
20260902084009 77 9 1.0 3.0 0.00 0.00 0.00 72 1012.0
20260902083509 77 334 2.0 3.0 0.00 0.00 0.00 72 1012.0
20260902083009 78 335 2.0 3.0 0.00 0.00 0.00 72 1011.9
20260902082509 78 124 1.0 3.0 0.00 0.00 0.00 72 1011.6
20260902082009 77 355 0.0 3.0 0.00 0.00 0.00 72 1011.9
20260902081510 77 315 0.0 7.0 0.00 0.00 0.00 72 1012.0
20260902080510 77 326 5.0 15.0 0.00 0.00 0.00 72 1012.0
20260902080010 77 334 6.0 12.0 0.00 0.00 0.00 73 1012.0
20260902075010 77 158 0.0 3.0 0.00 0.00 0.00 72 1011.0
20260902074510 77 143 2.0 3.0 0.00 0.00 0.00 72 1011.0
20260902074009 77 140 1.0 3.0 0.00 0.00 0.00 72 1011.0
20260902073509 78 133 1.0 3.0 0.00 0.00 0.00 71 1011.0
20260902073013 78 132 1.0 3.0 0.00 0.00 0.00 71 1010.9
20260902072510 78 139 2.0 3.0 0.00 0.00 0.00 71 1010.9
20260902071510 78 148 1.0 5.0 0.00 0.00 0.00 71 1011.0
20260902071009 78 142 1.0 5.0 0.00 0.00 0.00 70 1011.0
20260902070510 78 134 1.0 3.0 0.00 0.00 0.00 70 1010.9
20260902065510 79 130 1.0 3.0 0.00 0.00 0.00 69 1010.9
20260902064510 79 134 1.0 3.0 0.00 0.00 0.00 69 1010.9
20260902064010 79 134 1.0 2.0 0.00 0.00 0.00 69 1010.9
20260902063510 80 134 0.0 3.0 0.00 0.00 0.00 69 1010.8
20260902063010 80 133 1.0 6.0 0.00 0.00 0.00 68 1010.7
20260902062510 80 151 2.0 6.0 0.00 0.00 0.00 68 1010.5
20260902062010 80 160 1.0 5.0 0.00 0.00 0.00 68 1010.4
20260902061010 80 134 2.0 3.0 0.00 0.00 0.00 68 1010.4
20260902060510 80 163 2.0 3.0 0.00 0.00 0.00 67 1010.3
20260902060010 81 150 1.0 5.0 0.00 0.00 0.00 67 1010.2
20260902055510 81 140 1.0 5.0 0.00 0.00 0.00 67 1010.2
20260902055010 81 158 1.0 3.0 0.00 0.00 0.00 67 1010.2
20260902054510 81 168 1.0 5.0 0.00 0.00 0.00 67 1010.2
20260902054010 81 159 1.0 5.0 0.00 0.00 0.00 67 1010.3
20260902053509 81 160 1.0 5.0 0.00 0.00 0.00 67 1010.3
20260902053009 81 147 1.0 3.0 0.00 0.00 0.00 67 1010.3
20260902052009 82 134 1.0 5.0 0.00 0.00 0.00 67 1010.4
20260902050009 82 139 2.0 3.0 0.00 0.00 0.00 67 1010.5
20260902045511 82 142 1.0 3.0 0.00 0.00 0.00 67 1010.5
20260902045009 82 143 1.0 3.0 0.00 0.00 0.00 67 1010.4
20260902044509 83 144 1.0 3.0 0.00 0.00 0.00 67 1010.4
20260902043509 83 125 2.0 5.0 0.00 0.00 0.00 67 1010.5
20260902043009 83 121 1.0 3.0 0.00 0.00 0.00 67 1010.5
20260902042509 83 145 1.0 5.0 0.00 0.00 0.00 67 1010.5
20260902042009 83 156 1.0 5.0 0.00 0.00 0.00 67 1010.4
20260902041510 83 151 2.0 5.0 0.00 0.00 0.00 67 1010.4
20260902041009 83 161 1.0 5.0 0.00 0.00 0.00 67 1010.4
20260902040509 83 143 2.0 3.0 0.00 0.00 0.00 67 1010.4
20260902040009 84 141 1.0 3.0 0.00 0.00 0.00 67 1010.6
20260902035509 84 140 0.0 3.0 0.00 0.00 0.00 67 1010.7
20260902035009 84 167 1.0 3.0 0.00 0.00 0.00 66 1010.6
20260902034509 84 143 2.0 3.0 0.00 0.00 0.00 66 1010.7
20260902034009 84 133 0.0 3.0 0.00 0.00 0.00 66 1010.6
20260902033509 84 152 1.0 3.0 0.00 0.00 0.00 66 1010.6
20260902033010 84 135 0.0 3.0 0.00 0.00 0.00 66 1010.6
20260902032509 84 153 1.0 3.0 0.00 0.00 0.00 66 1010.5
20260902032009 85 139 1.0 3.0 0.00 0.00 0.00 66 1010.5
20260902031510 85 146 1.0 3.0 0.00 0.00 0.00 66 1010.5
20260902031010 85 132 1.0 3.0 0.00 0.00 0.00 66 1010.5
20260902030509 85 149 1.0 3.0 0.00 0.00 0.00 66 1010.5
20260902025510 85 131 0.0 3.0 0.00 0.00 0.00 66 1010.5
20260902025010 85 131 0.0 3.0 0.00 0.00 0.00 65 1010.5
20260902024509 85 141 0.0 3.0 0.00 0.00 0.00 65 1010.5
20260902024009 86 181 0.0 3.0 0.00 0.00 0.00 65 1010.3
20260902023010 86 156 1.0 3.0 0.00 0.00 0.00 64 1010.1
20260902022509 86 180 0.0 3.0 0.00 0.00 0.00 63 1010.0
20260902022010 87 134 1.0 3.0 0.00 0.00 0.00 62 1010.0
20260902021010 87 173 0.0 2.0 0.00 0.00 0.00 61 1010.0
20260902020510 88 173 0.0 2.0 0.00 0.00 0.00 61 1009.9
20260902020009 88 142 0.0 2.0 0.00 0.00 0.00 60 1009.9
20260902015010 89 142 1.0 2.0 0.00 0.00 0.00 59 1009.6
20260902014010 89 142 0.0 3.0 0.00 0.00 0.00 59 1009.4
20260902013510 90 192 0.0 2.0 0.00 0.00 0.00 58 1009.4
20260902013010 90 148 0.0 3.0 0.00 0.00 0.00 56 1009.4
20260902012510 90 148 1.0 3.0 0.00 0.00 0.00 56 1009.3
20260902012010 91 175 0.0 3.0 0.00 0.00 0.00 55 1009.3
20260902011510 91 160 0.0 1.0 0.00 0.00 0.00 55 1009.3
20260902011010 91 161 0.0 1.0 0.00 0.00 0.00 55 1009.2
20260902010510 92 161 0.0 3.0 0.00 0.00 0.00 54 1009.2
20260902010010 92 161 0.0 3.0 0.00 0.00 0.00 54 1009.2
20260902005509 92 150 0.0 3.0 0.00 0.00 0.00 53 1009.2
20260902005010 93 179 0.0 3.0 0.00 0.00 0.00 53 1009.1
20260902004510 93 179 1.0 3.0 0.00 0.00 0.00 52 1009.2
20260902004009 93 198 0.0 2.0 0.00 0.00 0.00 52 1009.0
20260902003009 94 198 0.0 3.0 0.00 0.00 0.00 51 1009.0
20260902002508 94 176 1.0 3.0 0.00 0.00 0.00 50 1009.0
20260902002009 94 156 1.0 3.0 0.00 0.00 0.00 50 1008.9
20260902001009 94 185 1.0 3.0 0.00 0.00 0.00 49 1009.2
20260902000509 94 157 2.0 3.0 0.00 0.00 0.00 49 1009.2
20260902000010 94 176 1.0 3.0 0.00 0.00 0.00 51 1009.3
20260901235509 94 172 1.0 3.0 0.00 0.00 0.00 50 1009.3
20260901235009 94 172 1.0 3.0 0.00 0.00 0.00 51 1009.3
20260901234512 94 201 2.0 3.0 0.00 0.00 0.00 50 1009.4
20260901234009 94 196 0.0 6.0 0.00 0.00 0.00 51 1009.4
20260901233509 94 196 2.0 7.0 0.00 0.00 0.00 50 1009.4
20260901233009 94 171 1.0 7.0 0.00 0.00 0.00 49 1009.4
20260901232509 94 191 2.0 3.0 0.00 0.00 0.00 50 1009.4
20260901232009 94 217 2.0 6.0 0.00 0.00 0.00 50 1009.4
20260901231510 95 199 1.0 6.0 0.00 0.00 0.00 50 1009.4
20260901231009 95 207 3.0 12.0 0.00 0.00 0.00 49 1009.4
20260901230509 95 210 3.0 12.0 0.00 0.00 0.00 49 1009.4
20260901225509 95 208 2.0 6.0 0.00 0.00 0.00 50 1009.5
20260901225009 95 215 2.0 6.0 0.00 0.00 0.00 50 1009.6
20260901224510 95 205 3.0 6.0 0.00 0.00 0.00 50 1009.7
20260901224009 95 206 3.0 9.0 0.00 0.00 0.00 50 1009.6
20260901223509 95 205 3.0 9.0 0.00 0.00 0.00 49 1009.6